Stations météo

Publicité
Lyon/Bron, France (7480): Température de l'air & dewpoint: 23.01.2020 19:00:00 - 29.01.2020 19:00:00 (CET)Lyon/Bron, France (7480): Température de l'air 5cm: 23.01.2020 19:00:00 - 29.01.2020 19:00:00 (CET)Lyon/Bron, France (7480): Température de l'air -20cm: 23.01.2020 19:00:00 - 29.01.2020 19:00:00 (CET)Lyon/Bron, France (7480): Vitesse du vent & gusts: 23.01.2020 19:00:00 - 29.01.2020 19:00:00 (CET)Lyon/Bron, France (7480): Direction du vent: 23.01.2020 19:00:00 - 29.01.2020 19:00:00 (CET)Lyon/Bron, France (7480): reduced air pressure: 23.01.2020 19:00:00 - 29.01.2020 19:00:00 (CET)Lyon/Bron, France (7480): visibility: 23.01.2020 19:00:00 - 29.01.2020 19:00:00 (CET)Lyon/Bron, France (7480): Ensoleillement: 23.01.2020 19:00:00 - 29.01.2020 19:00:00 (CET)Lyon/Bron, France (7480): Quantités de précipitations: 23.01.2020 19:00:00 - 29.01.2020 19:00:00 (CET)
Date & Time tt [°C] td [°C] tt 5cm [°C] tt -20cm [°C] ff [km/h] ff [knt] fx [km/h] fx [knt] dd ppp [hPa] vv [km] sd [min] rr [mm]
29.01.2020 19:00:00 7,6 5,1 4,6 7,2 4 2 14 8 SSE 1021,1 35 0 0,0
29.01.2020 18:00:00 8,6 5,9 7,5 7,1 8 5 19 11 SSW 1020,4 39 0 0,0
29.01.2020 17:00:00 9,0 5,6 8,5 7,0 14 7 24 13 SW 1019,8 60 1 0,0
29.01.2020 16:00:00 10,1 5,9 10,8 6,8 14 8 21 12 SSW 1019,6 53 26 0,0
29.01.2020 15:00:00 10,2 5,8 9,6 6,7 9 5 17 9 S 1019,3 54 17 0,0
29.01.2020 14:00:00 9,3 6,2 9,1 6,6 10 5 16 9 SSE 1019,4 18 0 0,0
29.01.2020 13:00:00 9,1 6,0 8,9 6,6 8 5 21 11 SSW 1019,4 16 2 0,2
29.01.2020 12:00:00 9,0 6,3 8,4 6,6 13 7 21 11 S 1019,9 54 13 0,0
29.01.2020 11:00:00 7,5 6,0 6,6 6,5 9 5 15 8 SSE 1019,9 52 0 0,0
29.01.2020 10:00:00 6,7 5,5 5,8 6,6 12 6 21 11 SSW 1019,3 10 0 0,6
29.01.2020 09:00:00 6,5 5,0 5,4 6,6 7 4 21 12 S 1018,6 20 0 0,4
29.01.2020 08:00:00 6,7 4,4 5,2 6,6 11 6 14 7 S 1018,2 20 0 0,0
29.01.2020 07:00:00 6,5 4,0 5,1 6,6 7 4 13 7 S 1017,7 36 0 0,0
29.01.2020 06:00:00 6,9 3,7 5,6 6,7 12 6 19 11 S 1016,9 56 0 0,0
29.01.2020 05:00:00 7,0 3,2 5,6 6,7 12 6 19 10 SSW 1016,6 60 0 0,0
29.01.2020 04:00:00 7,2 3,1 5,2 6,8 11 6 21 11 S 1016,6 60 0 0,0
29.01.2020 03:00:00 6,4 2,8 3,9 6,8 13 7 21 11 SSE 1016,5 60 0 0,0
29.01.2020 02:00:00 7,5 3,2 6,0 6,8 13 7 27 15 SW 1016,0 60 0 0,0
29.01.2020 01:00:00 6,9 3,0 6,0 6,9 15 8 29 16 SSW 1015,4 54 0 0,0
29.01.2020 00:00:00 7,2 3,1 5,7 6,9 19 10 31 17 S 1014,9 60 0 0,0
28.01.2020 23:00:00 6,7 3,1 5,6 7,0 14 8 26 14 S 1014,7 60 0 0,0
28.01.2020 22:00:00 6,1 3,6 3,8 7,0 18 10 25 13 S 1014,9 60 0 0,0
28.01.2020 21:00:00 5,5 3,3 3,3 7,1 4 2 25 13 ESE 1015,2 60 0 0,0
28.01.2020 20:00:00 5,7 3,7 3,2 7,1 11 6 20 11 S 1015,4 58 0 0,0
28.01.2020 19:00:00 6,0 3,5 4,4 7,1 10 6 26 14 S 1015,0 60 0 0,0
28.01.2020 18:00:00 6,7 3,5 5,3 7,1 14 8 29 15 SW 1015,0 60 0 0,2
28.01.2020 17:00:00 6,6 3,4 5,2 7,0 10 5 40 22 W 1014,8 27 0 0,8
28.01.2020 16:00:00 8,1 3,0 7,1 7,0 9 5 23 12 WNW 1014,5 60 0 0,0
28.01.2020 15:00:00 7,0 2,9 6,7 6,9 18 10 45 24 WNW 1014,2 58 0 0,0
28.01.2020 14:00:00 8,4 3,6 8,2 6,8 21 11 36 19 N 1014,0 60 0 0,0
28.01.2020 13:00:00 10,5 3,3 10,3 6,7 22 12 44 24 WNW 1013,1 46 22 0,0
28.01.2020 12:00:00 11,7 1,9 11,9 6,7 17 9 33 18 SW 1012,7 58 54 0,0
28.01.2020 11:00:00 9,8 3,7 7,0 6,7 24 13 48 26 WSW 1012,4 53 7 0,0
28.01.2020 10:00:00 7,5 5,6 6,2 6,7 8 5 46 25 SW 1012,6 59 0 1,2
28.01.2020 09:00:00 9,8 5,2 9,0 6,7 22 12 45 24 S 1010,1 57 0 0,0
28.01.2020 08:00:00 10,1 4,7 8,9 6,6 27 15 41 22 S 1009,6 60 0 0,0
28.01.2020 07:00:00 10,0 5,4 8,9 6,6 24 13 45 25 S 1009,4 60 0 0,0
28.01.2020 06:00:00 10,4 5,2 9,1 6,6 29 16 50 27 S 1009,6 60 0 0,0
28.01.2020 05:00:00 10,5 5,9 9,4 6,6 32 18 52 28 S 1009,1 60 0 0,0
28.01.2020 04:00:00 10,5 6,1 8,8 6,6 31 17 45 24 S 1009,3 59 0 0,0
28.01.2020 03:00:00 10,6 6,0 9,5 6,6 31 17 49 27 S 1009,4 56 0 0,0
28.01.2020 02:00:00 10,4 5,8 9,3 6,6 33 18 53 29 S 1010,0 50 0 0,0
28.01.2020 01:00:00 10,3 5,7 8,8 6,5 27 15 57 31 S 1010,3 51 0 0,0
28.01.2020 00:00:00 10,1 5,5 9,0 6,5 27 15 53 29 S 1010,7 49 0 0,0
27.01.2020 23:00:00 10,2 5,8 9,2 6,5 35 19 58 31 S 1011,4 48 0 0,0
27.01.2020 22:00:00 10,3 6,1 9,3 6,5 29 16 56 31 S 1012,3 59 0 0,0
27.01.2020 21:00:00 10,1 5,7 9,1 6,4 35 19 55 30 S 1012,2 54 0 0,0
27.01.2020 20:00:00 9,9 5,3 9,0 6,4 27 15 56 30 S 1012,5 47 0 0,0
27.01.2020 19:00:00 10,1 4,9 7,4 6,4 32 17 54 29 S 1012,3 57 0 0,0
27.01.2020 18:00:00 9,2 5,4 7,4 6,3 21 11 46 25 S 1013,7 20 0 0,2
27.01.2020 17:00:00 9,6 4,6 8,2 6,2 27 14 52 28 S 1013,9 57 0 0,0
27.01.2020 16:00:00 10,2 3,7 9,7 6,1 29 16 53 29 S 1013,6 59 0 0,0
27.01.2020 15:00:00 10,5 4,2 10,5 6,0 29 16 48 26 S 1014,1 60 3 0,0
27.01.2020 14:00:00 10,1 5,5 9,0 6,0 18 10 32 18 S 1015,1 44 19 0,0
27.01.2020 13:00:00 7,8 5,4 7,7 5,9 16 8 28 15 S 1016,5 20 0 0,0
27.01.2020 12:00:00 6,9 5,4 7,9 5,9 9 5 27 15 SW 1017,6 15 0 0,0
27.01.2020 11:00:00 6,6 5,4 7,1 5,9 10 6 21 12 SSW 1018,1 13 6 0,0
27.01.2020 10:00:00 6,3 5,3 6,2 5,9 18 10 26 14 S 1018,6 11 0 0,0
27.01.2020 09:00:00 6,1 5,5 4,7 5,9 11 6 17 9 SSE 1018,8 12 0 0,0
27.01.2020 08:00:00 5,1 4,7 4,5 6,0 7 4 22 12 S 1019,3 9 0 0,0
27.01.2020 07:00:00 5,2 5,1 2,8 6,1 12 6 20 11 SSE 1019,5 8 0 0,0
27.01.2020 06:00:00 3,4 3,3 0,5 6,2 0 0 9 5 N 1020,0 0,6 0 0,0
27.01.2020 05:00:00 3,1 2,8 0,7 6,2 6 3 10 5 SE 1020,5 0,3 0 0,0
27.01.2020 04:00:00 3,1 2,8 0,3 6,4 5 3 8 5 ESE 1020,7 0,2 0 0,0
27.01.2020 03:00:00 3,1 2,8 0,2 6,4 5 3 8 4 SSE 1021,4 1,0 0 0,0
27.01.2020 02:00:00 2,9 2,3 0,2 6,5 5 3 6 3 ESE 1021,5 0,5 0 0,0
27.01.2020 01:00:00 4,3 3,9 1,2 6,5 5 3 8 4 SE 1021,5 0,4 0 0,0
27.01.2020 00:00:00 5,5 4,6 2,1 6,5 3 2 6 3 E 1021,4 1,0 0 0,0
26.01.2020 23:00:00 7,1 5,9 3,9 6,5 3 1 9 5 SE 1021,2 10 0 0,0
26.01.2020 22:00:00 8,1 7,0 6,5 6,5 6 3 8 4 SSE 1021,1 13 0 0,0
26.01.2020 21:00:00 8,5 7,3 7,4 6,5 3 1 11 6 SSE 1021,1 12 0 0,0
26.01.2020 20:00:00 8,6 7,4 7,5 6,4 11 6 21 12 SSW 1020,8 15 0 0,8
26.01.2020 19:00:00 9,3 6,9 7,7 6,3 14 8 31 17 SSW 1020,2 8 0 0,4
26.01.2020 18:00:00 10,5 5,7 9,5 6,2 21 11 29 16 S 1019,5 60 0 0,0
26.01.2020 17:00:00 11,1 6,0 10,6 6,1 16 9 29 16 S 1019,1 60 0 0,0
26.01.2020 16:00:00 11,8 6,1 11,7 5,9 20 11 30 16 S 1019,1 59 14 0,0
26.01.2020 15:00:00 11,9 6,6 12,4 5,8 17 9 31 17 S 1018,8 58 0 0,0
26.01.2020 14:00:00 11,8 6,5 12,2 5,7 21 11 32 17 S 1019,2 52 2 0,0
26.01.2020 13:00:00 11,0 6,3 11,5 5,6 19 10 32 18 S 1019,5 55 0 0,0
26.01.2020 12:00:00 10,3 6,4 9,9 5,6 13 7 23 13 S 1020,1 53 0 0,0
26.01.2020 11:00:00 8,9 6,2 8,2 5,6 13 7 24 13 SE 1020,2 25 0 0,0
26.01.2020 10:00:00 7,0 6,1 5,8 5,5 6 3 15 8 ESE 1020,2 9 0 0,0
26.01.2020 09:00:00 6,1 5,2 4,8 5,6 6 3 10 6 E 1020,2 6 0 0,2
26.01.2020 08:00:00 5,8 4,9 4,8 5,6 4 2 6 4 E 1020,0 5 0 0,2
26.01.2020 07:00:00 6,0 5,1 4,7 5,5 3 1 6 4 E 1019,8 5 0 0,0
26.01.2020 06:00:00 5,6 5,0 4,3 5,6 3 2 6 3 NE 1019,6 6 0 0,0
26.01.2020 05:00:00 5,4 4,7 4,2 5,6 2 1 5 3 W 1019,5 4,8 0 0,0
26.01.2020 04:00:00 5,4 4,7 3,8 5,6 3 1 6 4 ENE 1019,8 5 0 0,0
26.01.2020 03:00:00 5,7 5,0 2,7 5,6 2 1 9 5 ENE 1020,0 5 0 0,0
26.01.2020 02:00:00 5,9 4,7 2,5 5,6 0 0 6 3 N 1019,9 3,8 0 0,0
26.01.2020 01:00:00 6,6 5,5 4,5 5,6 4 2 6 3 E 1020,1 8 0 0,0
26.01.2020 00:00:00 6,7 5,2 4,0 5,6 2 1 7 4 WNW 1020,2 13 0 0,0
25.01.2020 23:00:00 7,8 5,4 4,2 5,6 2 1 10 6 NNW 1020,2 17 0 0,0
25.01.2020 22:00:00 8,9 6,2 8,0 5,5 6 4 15 8 ESE 1020,0 16 0 0,0
25.01.2020 21:00:00 9,4 6,1 7,9 5,5 8 4 11 6 ESE 1020,1 28 0 0,0
25.01.2020 20:00:00 9,8 6,1 7,9 5,4 4 2 20 11 S 1019,9 24 0 0,0
25.01.2020 19:00:00 10,0 6,2 9,2 5,3 9 5 19 10 SE 1019,8 20 0 0,0
25.01.2020 18:00:00 10,4 6,2 9,5 5,1 10 5 16 8 ESE 1019,7 23 0 0,0
25.01.2020 17:00:00 11,7 6,4 11,1 5,0 9 5 20 11 SSE 1019,6 19 0 0,0
25.01.2020 16:00:00 11,8 6,5 12,0 4,8 11 6 21 11 SSE 1020,1 20 8 0,0
25.01.2020 15:00:00 10,8 5,5 12,5 4,6 3 1 10 5 SE 1020,6 12 16 0,0
25.01.2020 14:00:00 9,8 4,4 10,2 4,5 4 2 10 5 N 1021,4 9 19 0,0
25.01.2020 13:00:00 8,1 3,7 10,1 4,4 4 2 9 5 E 1022,4 7 15 0,0
25.01.2020 12:00:00 6,5 4,2 8,0 4,4 2 1 6 4 ENE 1023,1 4,9 20 0,0
25.01.2020 11:00:00 3,9 3,3 3,8 4,4 3 1 5 3 N 1023,5 3,6 0 0,0
25.01.2020 10:00:00 2,7 2,4 1,0 4,4 4 2 8 4 NE 1023,3 2,3 0 0,0
25.01.2020 09:00:00 1,8 1,4 0,0 4,4 0 0 4 2 N 1023,3 1,5 0 0,0
25.01.2020 08:00:00 2,3 1,9 1,5 4,4 2 1 6 4 SSE 1023,1 2,2 0 0,0
25.01.2020 07:00:00 2,1 1,7 1,1 4,5 3 1 5 3 E 1022,9 1,4 0 0,0
25.01.2020 06:00:00 2,0 1,6 0,5 4,5 4 2 5 3 NNE 1022,9 1,4 0 0,0
25.01.2020 05:00:00 2,1 1,8 1,0 4,5 4 2 5 3 SSE 1022,8 1,7 0 0,0
25.01.2020 04:00:00 1,9 1,6 0,4 4,6 2 1 6 3 E 1023,1 1,2 0 0,0
25.01.2020 03:00:00 1,3 0,9 -0,7 4,7 6 3 8 4 S 1023,6 1,6 0 0,0
25.01.2020 02:00:00 1,3 0,9 -1,1 4,7 2 1 4 2 SE 1023,8 1,4 0 0,0
25.01.2020 01:00:00 0,9 0,2 -1,6 4,7 3 2 4 2 WNW 1024,0 0,2 0 0,0
25.01.2020 00:00:00 1,7 0,8 -1,3 4,8 2 1 5 3 E 1023,7 0,9 0 0,0
24.01.2020 23:00:00 2,7 1,7 -0,3 4,8 5 3 7 4 N 1023,6 1,9 0 0,0
24.01.2020 22:00:00 4,0 2,5 1,5 4,8 0 0 11 6 N 1023,4 2,8 0 0,0
24.01.2020 21:00:00 4,5 3,0 2,6 4,7 4 2 5 3 E 1023,3 4,6 0 0,0
24.01.2020 20:00:00 5,0 3,3 2,9 4,7 4 2 5 3 SSW 1023,5 6 0 0,0
24.01.2020 19:00:00 5,6 3,3 3,0 4,6 0 0 5 3 N 1023,2 5 0 0,0
24.01.2020 18:00:00 6,4 3,7 4,7 4,4 4 2 7 4 E 1023,0 6 0 0,0
24.01.2020 17:00:00 7,1 3,5 5,8 4,3 3 2 9 5 NNE 1022,8 7 0 0,0
24.01.2020 16:00:00 7,6 2,9 7,9 4,1 6 3 12 6 NNE 1022,9 7 0 0,0
24.01.2020 15:00:00 7,6 3,3 9,8 3,9 7 4 12 6 NW 1023,2 6 33 0,0
24.01.2020 14:00:00 6,6 2,7 9,0 3,8 2 1 10 5 ENE 1023,8 6 60 0,0
24.01.2020 13:00:00 3,3 2,3 3,5 3,8 5 3 11 6 NE 1024,8 3,6 42 0,0
24.01.2020 12:00:00 0,7 0,6 1,5 3,8 4 2 9 5 SSE 1026,1 2,0 0 0,0
24.01.2020 11:00:00 0,0 0,0 -0,2 3,8 3 1 7 4 SW 1026,5 0,2 0 0,0
24.01.2020 10:00:00 -0,7 -0,8 -0,9 3,8 4 2 9 5 SSW 1026,2 0,1 0 0,0
24.01.2020 09:00:00 -1,1 -1,2 -1,6 3,8 2 1 5 3 SSW 1026,4 0,2 0 0,0
24.01.2020 08:00:00 -1,4 -1,5 -1,7 3,9 3 1 5 3 N 1026,1 0,1 0 0,0
24.01.2020 07:00:00 -1,3 -1,4 -1,4 3,9 0 0 11 6 N 1026,3 0,3 0 0,0
24.01.2020 06:00:00 -0,9 -1,0 -1,2 3,9 5 3 8 4 ESE 1026,1 0,1 0 0,0
24.01.2020 05:00:00 -1,0 -1,1 -1,2 3,9 3 1 7 4 NE 1025,9 0,2 0 0,0
24.01.2020 04:00:00 -0,8 -0,9 -1,4 3,9 5 3 12 6 NNE 1026,2 0,1 0 0,0
24.01.2020 03:00:00 -1,4 -1,5 -1,4 3,9 2 1 5 3 SSW 1026,7 0,2 0 0,0
24.01.2020 02:00:00 -1,4 -1,5 -1,5 3,9 3 2 8 4 ESE 1026,6 0,1 0 0,0
24.01.2020 01:00:00 -1,2 -1,3 -1,2 4,0 3 2 8 4 WNW 1027,2 0,1 0 0,0
24.01.2020 00:00:00 -1,1 -1,4 -1,2 4,0 2 1 6 3 E 1027,5 0,1 0 0,0
23.01.2020 23:00:00 -0,9 -1,0 -1,1 4,0 4 2 8 4 ESE 1027,5 0,1 0 0,0
23.01.2020 22:00:00 -0,9 -1,2 -1,1 4,0 4 2 8 4 ENE 1027,7 0,1 0 0,0
23.01.2020 21:00:00 -0,7 -1,1 -0,9 4,0 0 0 7 4 N 1027,7 0,1 0 0,0
23.01.2020 20:00:00 -0,4 -0,8 -1,0 4,0 6 3 10 6 E 1027,5 0,2 0 0,0
23.01.2020 19:00:00 -0,2 -1,0 -0,7 4,0 6 3 12 6 E 1027,4 1,4 0 0,0

tt = Température de l'air
td = dewpoint
tt 5cm = Température de l'air 5cm
tt -20cm = Température de l'air -20cm
ff = Vitesse du vent
fx = gusts
dd = Direction du vent
ppp = reduced air pressure
vv = visibility
sd = Ensoleillement
rr = Quantités de précipitations

stations d'obs. à proximité